VIR133 EGCC-LFMN

Flight info

Callsign VIR133
Flight time N/A
Altitude 35000
Route SANBA N859 HON UL612 MID/N0479F390 UL612 VEULE DCT KOTAP UM728 KETEX DCT KOTIS DCT KUKOR DCT UTUVA DCT LERGA DCT LIQID DCT LATAM DCT TUNUR DCT NISAR
Aircraft A35K/H-SDE2E3GHIJ3J4J5LM1ORWXY/LB1D1

Departure

Time 2026-05-01 14:49
Airport Manchester Airport (EGCC)

Arrival

Time N/A
Airport Nice-Côte d'Azur Airport (LFMN)
Time Latitude Longitude Altitude Speed Heading
2026-05-01 13:54 53.36458 -2.27773 252 ft 0 kts 44°
2026-05-01 14:26 53.36448 -2.27789 252 ft 3 kts 44°
2026-05-01 14:27 53.36435 -2.27810 252 ft 3 kts 44°
2026-05-01 14:27 53.36424 -2.27829 253 ft 0 kts 39°
2026-05-01 14:27 53.36422 -2.27831 253 ft 3 kts 39°
2026-05-01 14:28 53.36384 -2.27844 253 ft 3 kts 326°
2026-05-01 14:28 53.36380 -2.27840 253 ft 0 kts 316°
2026-05-01 14:41 53.36388 -2.27852 253 ft 3 kts 317°
2026-05-01 14:41 53.36414 -2.27895 253 ft 7 kts 314°
2026-05-01 14:41 53.36415 -2.27934 254 ft 2 kts 231°
2026-05-01 14:41 53.36397 -2.27955 254 ft 5 kts 213°
2026-05-01 14:42 53.36350 -2.28005 255 ft 11 kts 213°
2026-05-01 14:42 53.36259 -2.28073 256 ft 17 kts 192°
2026-05-01 14:42 53.36181 -2.28033 256 ft 2 kts 143°
2026-05-01 14:42 53.36157 -2.27999 256 ft 7 kts 140°
2026-05-01 14:43 53.36112 -2.27931 255 ft 11 kts 137°
2026-05-01 14:43 53.36043 -2.27846 255 ft 14 kts 163°
2026-05-01 14:43 53.35942 -2.27846 255 ft 15 kts 183°
2026-05-01 14:43 53.35869 -2.27832 255 ft 11 kts 154°
2026-05-01 14:44 53.35836 -2.27781 255 ft 0 kts 130°
2026-05-01 14:44 53.35747 -2.27653 253 ft 15 kts 159°
2026-05-01 14:44 53.35659 -2.27575 252 ft 0 kts 141°
2026-05-01 14:45 53.35650 -2.27563 252 ft 5 kts 141°
2026-05-01 14:45 53.35516 -2.27384 250 ft 18 kts 141°
2026-05-01 14:45 53.35405 -2.27236 250 ft 23 kts 146°
2026-05-01 14:46 53.35256 -2.27214 261 ft 21 kts 192°
2026-05-01 14:46 53.35144 -2.27254 274 ft 0 kts 192°
2026-05-01 14:47 53.35138 -2.27256 275 ft 3 kts 192°
2026-05-01 14:47 53.35096 -2.27271 277 ft 10 kts 192°
2026-05-01 14:47 53.35000 -2.27349 275 ft 21 kts 226°
2026-05-01 14:48 53.34964 -2.27418 274 ft 0 kts 231°
2026-05-01 14:48 53.34955 -2.27437 274 ft 13 kts 231°
2026-05-01 14:48 53.34135 -2.29142 261 ft 164 kts 232°
2026-05-01 14:49 53.32634 -2.32298 1739 ft 184 kts 233°
2026-05-01 14:49 53.32058 -2.36712 2938 ft 223 kts 278°
2026-05-01 14:50 53.32415 -2.40340 3676 ft 248 kts 265°
2026-05-01 14:50 53.29342 -2.45365 4962 ft 253 kts 191°
2026-05-01 14:51 53.27581 -2.45345 5004 ft 256 kts 170°
2026-05-01 14:51 53.24317 -2.42989 5011 ft 258 kts 150°
2026-05-01 14:52 53.21184 -2.39916 5014 ft 277 kts 152°
2026-05-01 14:52 53.19468 -2.38324 5020 ft 275 kts 153°
2026-05-01 14:52 53.16252 -2.35455 5138 ft 257 kts 154°
2026-05-01 14:53 53.14664 -2.34053 5138 ft 259 kts 154°
2026-05-01 14:53 53.13071 -2.32649 5181 ft 258 kts 154°
2026-05-01 14:53 53.11470 -2.31255 5644 ft 260 kts 154°
2026-05-01 14:53 53.09869 -2.29841 6618 ft 261 kts 154°
2026-05-01 14:54 53.08263 -2.28435 7699 ft 262 kts 154°
2026-05-01 14:54 53.06638 -2.27029 8724 ft 265 kts 155°
2026-05-01 14:54 53.04998 -2.25622 9758 ft 267 kts 155°
2026-05-01 14:54 53.03334 -2.24190 10656 ft 276 kts 155°
2026-05-01 14:55 53.01558 -2.22664 11150 ft 299 kts 155°
2026-05-01 14:55 52.99646 -2.21011 11593 ft 321 kts 154°
2026-05-01 14:55 52.97626 -2.19255 12226 ft 333 kts 154°
2026-05-01 14:55 52.95552 -2.17451 13051 ft 340 kts 154°
2026-05-01 14:56 52.93436 -2.15610 13882 ft 346 kts 154°
2026-05-01 14:56 52.91288 -2.13746 14750 ft 351 kts 154°
2026-05-01 14:56 52.89108 -2.11865 15599 ft 355 kts 154°
2026-05-01 14:56 52.86907 -2.09969 16408 ft 359 kts 154°
2026-05-01 14:57 52.84675 -2.08048 17175 ft 364 kts 154°
2026-05-01 14:57 52.80123 -2.04131 18665 ft 373 kts 154°
2026-05-01 14:57 52.77806 -2.02142 19421 ft 377 kts 154°
2026-05-01 14:58 52.75462 -2.00132 20163 ft 382 kts 154°
2026-05-01 14:58 52.73086 -1.98097 20876 ft 388 kts 154°
2026-05-01 14:58 52.70675 -1.96034 21563 ft 393 kts 154°
2026-05-01 14:58 52.68231 -1.93946 22246 ft 398 kts 154°
2026-05-01 14:59 52.65759 -1.91836 22936 ft 403 kts 154°
2026-05-01 14:59 52.63255 -1.89704 23575 ft 407 kts 154°
2026-05-01 14:59 52.60762 -1.87582 24215 ft 412 kts 154°
2026-05-01 14:59 52.58199 -1.85404 24886 ft 416 kts 154°
2026-05-01 15:00 52.53015 -1.81008 26164 ft 423 kts 154°
2026-05-01 15:00 52.50392 -1.78788 26795 ft 426 kts 154°
2026-05-01 15:00 52.47751 -1.76554 27447 ft 428 kts 154°
2026-05-01 15:01 52.45091 -1.74308 28045 ft 431 kts 155°
2026-05-01 15:01 52.42414 -1.72052 28618 ft 434 kts 155°
2026-05-01 15:01 52.39721 -1.69784 29165 ft 437 kts 155°
2026-05-01 15:01 52.37012 -1.67507 29707 ft 439 kts 155°
2026-05-01 15:02 52.34281 -1.65214 30211 ft 442 kts 155°
2026-05-01 15:02 52.33353 -1.64439 30386 ft 443 kts 155°
2026-05-01 15:02 52.28745 -1.60645 31063 ft 450 kts 155°
2026-05-01 15:02 52.25933 -1.58353 31412 ft 455 kts 155°
2026-05-01 15:03 52.23096 -1.56045 31792 ft 458 kts 155°
2026-05-01 15:03 52.20232 -1.53716 32124 ft 462 kts 155°
2026-05-01 15:03 52.17345 -1.51365 32450 ft 465 kts 155°
2026-05-01 15:03 52.14438 -1.48997 32780 ft 469 kts 155°
2026-05-01 15:04 52.11515 -1.46616 33096 ft 472 kts 155°
2026-05-01 15:04 52.08577 -1.44225 33507 ft 472 kts 155°
2026-05-01 15:04 52.05641 -1.41839 33968 ft 472 kts 155°
2026-05-01 15:04 52.02705 -1.39456 34336 ft 472 kts 155°
2026-05-01 15:05 51.99766 -1.37075 34739 ft 472 kts 155°
2026-05-01 15:05 51.96824 -1.34696 35053 ft 473 kts 155°
2026-05-01 15:05 51.93884 -1.32317 35124 ft 473 kts 155°
2026-05-01 15:06 51.87993 -1.27575 35127 ft 473 kts 155°
2026-05-01 15:06 51.82093 -1.22844 35130 ft 473 kts 155°
2026-05-01 15:07 51.76193 -1.18123 35128 ft 473 kts 155°
2026-05-01 15:07 51.71285 -1.14203 35127 ft 473 kts 155°
2026-05-01 15:08 51.65377 -1.09497 35128 ft 473 kts 155°
2026-05-01 15:08 51.59661 -1.04226 35133 ft 475 kts 147°
2026-05-01 15:09 51.54223 -0.98149 35131 ft 476 kts 146°
2026-05-01 15:09 51.48832 -0.91965 35136 ft 476 kts 146°
2026-05-01 15:10 51.43153 -0.86609 35151 ft 474 kts 157°
2026-05-01 15:10 51.34020 -0.80579 35156 ft 473 kts 160°
2026-05-01 15:11 51.24822 -0.74797 35156 ft 474 kts 159°
2026-05-01 15:12 51.18691 -0.70915 35156 ft 474 kts 159°
2026-05-01 15:12 51.09499 -0.65097 35170 ft 474 kts 159°
2026-05-01 15:13 51.00805 -0.57642 36135 ft 474 kts 148°
2026-05-01 15:14 50.95350 -0.51863 36769 ft 475 kts 147°
2026-05-01 15:14 50.92582 -0.48890 37155 ft 473 kts 147°
2026-05-01 15:14 50.87174 -0.43098 37997 ft 467 kts 147°
2026-05-01 15:15 50.81833 -0.37426 38578 ft 465 kts 148°
2026-05-01 15:15 50.76450 -0.31742 39055 ft 466 kts 148°
2026-05-01 15:16 50.71050 -0.26057 39180 ft 467 kts 148°
2026-05-01 15:16 50.65642 -0.20376 39182 ft 467 kts 148°
2026-05-01 15:18 50.52107 -0.06231 39182 ft 466 kts 148°
2026-05-01 15:19 50.41284 0.05012 39197 ft 469 kts 148°
2026-05-01 15:19 50.33088 0.13485 39200 ft 471 kts 148°
2026-05-01 15:20 50.24864 0.21939 39193 ft 472 kts 148°
2026-05-01 15:21 50.19365 0.27581 39202 ft 472 kts 148°
2026-05-01 15:21 50.13884 0.33218 39206 ft 472 kts 148°
2026-05-01 15:22 50.05659 0.41651 39203 ft 472 kts 148°
2026-05-01 15:22 50.00172 0.47258 39205 ft 472 kts 148°
2026-05-01 15:23 49.94685 0.52845 39207 ft 472 kts 148°
2026-05-01 15:23 49.89186 0.58430 39194 ft 473 kts 148°
2026-05-01 15:24 49.83725 0.63988 39195 ft 473 kts 147°
2026-05-01 15:24 49.78361 0.69899 39205 ft 473 kts 145°
2026-05-01 15:25 49.73045 0.75906 39181 ft 473 kts 145°
2026-05-01 15:25 49.67701 0.81859 39182 ft 473 kts 146°
2026-05-01 15:26 49.62346 0.87756 39183 ft 473 kts 146°
2026-05-01 15:26 49.56979 0.93634 39182 ft 473 kts 146°
2026-05-01 15:27 49.51618 0.99490 39182 ft 473 kts 146°
2026-05-01 15:28 49.43566 1.08263 39182 ft 473 kts 146°
2026-05-01 15:28 49.38196 1.14092 39181 ft 473 kts 146°
2026-05-01 15:29 49.30126 1.22823 39181 ft 473 kts 146°
2026-05-01 15:30 49.19359 1.34423 39183 ft 473 kts 146°
2026-05-01 15:31 49.03172 1.51733 39182 ft 474 kts 147°
2026-05-01 15:32 48.92355 1.63224 39182 ft 474 kts 147°
2026-05-01 15:34 48.76060 1.80419 39182 ft 477 kts 147°